Regional Weather Roundup
Issued by NWS

Home | Current Version | Previous Version | Text Only | Print | Product List | Glossary Off
Versions: 1 2 3 4 5 6 7 8 9 10 11 12 13 14 15 16 17 18 19 20 21 22 23 24 25 26 27 28 29 30 31 32 33 34 35 36 37 38 39 40 41 42 43 44 45 46 47 48 49 50

000
ASUS43 KDMX 220306
RWRIA

WEATHER ROUNDUP FOR IOWA
NATIONAL WEATHER SERVICE DES MOINES IA
900 PM CST WED FEB 21 2018

NOTE: "FAIR" INDICATES FEW OR NO CLOUDS BELOW 12,000 FEET WITH NO
SIGNIFICANT WEATHER AND/OR OBSTRUCTIONS TO VISIBILITY.

* - THESE STATIONS ARE NOT NWS STATIONS...THUS NOT UNDER NWS
QUALITY CONTROL.  THEY ALSO DO NOT REPORT WEATHER SUCH
AS PRECIPITATION OR FOG.

IAZ001>003-012>014-020>022-031>034-043>046-220400-
   NORTHWEST IOWA

CITY           SKY/WX    TMP DP  RH WIND       PRES   REMARKS
CARROLL *      CLOUDY    21  14  73 E12       30.57S WCI   9
CHEROKEE *     CLOUDY    19  12  76 E3        30.58S
DENISON *      CLOUDY    19  12  73 E8        30.58R WCI   9
LE MARS *      CLOUDY    18  14  86 E6        30.56F WCI   9
ORANGE CITY *  CLOUDY    18  12  79 E3        30.55F
SHELDON *      CLOUDY    16  10  79 E5        30.54F WCI   9
SIOUX CITY     MOCLDY    19  12  74 E9        30.56F WCI   8
SPENCER        MIX PCPN  18  12  77 E7        30.57F WCI   9
STORM LAKE *   CLOUDY    18  10  73 E8        30.56S WCI   7
$$

IAZ055>058-069>071-079>083-090>094-220400-
   SOUTHWEST IOWA

CITY           SKY/WX    TMP DP  RH WIND       PRES   REMARKS
ATLANTIC *     CLOUDY    23  16  74 E8G14     30.56R WCI  14
AUDUBON *      CLOUDY    21  16  79 CALM      30.56R
CLARINDA *     CLOUDY    27  21  80 VRB7      30.57R WCI  19
COUNCIL BLFS * CLOUDY    23  18  80 E8        30.54R WCI  14
CRESTON *      CLOUDY    23  18  80 E13G18    30.54F WCI  11
HARLAN  *      CLOUDY    21  18  86 E9        30.59S WCI  11
LAMONI         CLOUDY    25  20  81 NE9       30.53F WCI  15
RED OAK *      CLOUDY    25  19  80 NE12G20   30.54F WCI  14
SHENANDOAH *   CLOUDY    27  19  74 E9G15     30.55R WCI  17
$$

IAZ047>049-059>061-072>074-084-220400-
   CENTRAL IOWA

CITY           SKY/WX    TMP DP  RH WIND       PRES   REMARKS
AMES           CLOUDY    23  16  74 NE8       30.60S WCI  14
ANKENY *       CLOUDY    23  18  80 NE9       30.61S WCI  13
BOONE *        CLOUDY    21  18  86 E12       30.58R WCI   9
CHARITON *     CLOUDY    25  19  80 NE13      30.55F WCI  13
DES MOINES     CLOUDY    24  16  71 E8        30.59S WCI  15
GRINNELL*      CLOUDY    23  18  78 NE9       30.60R WCI  13
KNOXVILLE *    CLOUDY    25  16  68 NE9       30.56F WCI  15
MARSHALLTOWN   MOCLDY    22  15  75 NE10      30.59S WCI  11
NEWTON *       CLOUDY    23  16  74 NE8       30.60R WCI  14
PELLA *        FAIR      25  18  76 NE5       30.61S WCI  19
PERRY *        CLOUDY    23  19  83 NE8       30.59R WCI  14
$$

IAZ004>006-015-016-023>025-035-036-220400-
   NORTH CENTRAL IOWA

CITY           SKY/WX    TMP DP  RH WIND       PRES   REMARKS
ALGONA *       MOCLDY    19 N/A N/A CALM      30.59F
CLARION *      CLOUDY    21  19  93 NE6       30.60S WCI  14
ESTHERVILLE    CLOUDY    14   8  77 E7        30.58F WCI   4
FORT DODGE *   CLOUDY    18  13  80 NE3       30.60S
MASON CITY     FAIR      21  12  68 NE5       30.62S WCI  15
FOREST CITY *  MOCLDY    19  16  86 CALM      30.60F
WEBSTER CITY * CLOUDY    19  14  79 NE5       30.58S WCI  13
IOWA FALLS *   CLOUDY    22  17  81 NE6       30.61S WCI  14
$$

IAZ007>011-017>019-026>030-037>042-050>054-066-220400-
   NORTHEAST IOWA

CITY           SKY/WX    TMP DP  RH WIND       PRES   REMARKS
CEDAR RAPIDS   FAIR      24  14  65 NE9       30.59R WCI  14
CHARLES CITY * FAIR      21  16  79 N5        30.62S WCI  15
CLINTON *      FAIR      25  20  81 NE9       30.62F WCI  15
DECORAH *      FAIR      21  14  73 CALM      30.60F
DUBUQUE        FAIR      23  13  65 NE8       30.60F WCI  14
MONTICELLO *   FAIR      25  14  63 NE5       30.61R WCI  19
OELWEIN *      FAIR      21  19  93 NE6       30.61R WCI  14
WATERLOO       FAIR      21  16  81 NE6       30.62R WCI  13
$$

IAZ064-065-067-068-078-220400-
   EAST CENTRAL IOWA

CITY           SKY/WX    TMP DP  RH WIND       PRES   REMARKS
DAVENPORT      FAIR      27  18  69 NE9       30.62S WCI  18
IOWA CITY      FAIR      27  15  61 NE8       30.63R WCI  19
MT. PLEASANT * FAIR      27  19  74 NE8       30.59S WCI  18
MUSCATINE *    FAIR      28  18  64 NE12      30.62R WCI  18
QUAD CITIES    FAIR      28  19  69 NE10      30.61R WCI  19
$$

IAZ062-063-075>077-085>089-095>099-220400-
   SOUTHEAST IOWA

CITY           SKY/WX    TMP DP  RH WIND       PRES   REMARKS
BURLINGTON     FAIR      27  19  72 NE10      30.58S WCI  17
FAIRFIELD *    FAIR      27  16  63 NE12      30.58S WCI  16
FORT MADISON * FAIR      27  21  80 NE8       30.58S WCI  18
KEOKUK *       FAIR      28  21  74 NE8       30.56F WCI  20
OSKALOOSA *    CLOUDY    25  19  78 NE8       30.59S WCI  16
OTTUMWA        MOCLDY    26  17  68 NE10      30.58S WCI  16
WASHINGTON *   FAIR      27  21  80 NE10      30.61R WCI  17
$$

ABBREVIATIONS USED IN REMARKS
   TC - TEMPERATURES IN CELSIUS
  WCI - WIND CHILL INDEX
   HX - HEAT INDEX
  VSB - VISIBILITY
$$





USA.gov is the U.S. government's official web portal to all federal, state and local government web resources and services.